Wind_Speed
48 47 46 47 49 54 57 58 57 55 53 50 48 45 44 44 45 47 51 54 57 60 62 62 62 62 60 58 57 54 51 49 46 40 38 37 38 36 33 30 28 28 28
49 47 47 48 52 55 56 55 54 52 50 48 45 44 44 46 48 51 54 58 60 61 62 62 60 59 56 53 50 48 46 44 41 36 33 33 33 32 29 27 25 25 26
46 45 47 50 52 53 52 52 51 50 48 46 45 45 46 49 52 55 57 59 61 62 61 59 56 53 49 47 44 43 41 39 37 32 28 28 28 27 24 23 23 23 23
43 44 47 49 50 50 50 50 49 48 46 45 45 47 49 52 55 56 58 59 60 59 57 54 50 46 43 41 39 37 36 34 31 27 23 23 23 22 20 20 20 20 20
45 46 47 48 48 48 49 49 47 45 44 45 47 50 52 54 56 57 58 58 57 54 50 47 44 41 38 36 34 32 30 27 24 21 19 18 19 18 17 16 16 16 17
45 45 46 46 47 48 48 46 45 44 45 47 49 51 53 55 56 56 56 55 53 48 44 41 39 37 34 31 29 27 24 21 18 17 14 14 14 14 13 12 12 12 13
43 44 45 46 47 46 45 44 44 45 47 49 50 52 53 54 54 54 52 50 46 42 39 37 35 33 30 26 24 21 18 15 13 11 10 10 10 10 10 9 9 9 10
42 43 44 45 45 44 44 44 45 47 48 49 50 51 52 52 51 49 47 44 40 37 35 33 31 28 25 21 18 15 12 9 8 7 8 8 8 9 8 6 5 5 5
42 43 43 43 43 43 43 45 47 48 48 49 50 50 50 49 47 45 42 39 37 34 32 29 26 22 19 16 12 9 7 5 5 7 8 8 8 8 6 5 3 1 2
41 42 41 41 41 43 44 46 46 47 47 48 48 48 46 45 43 41 38 35 33 31 28 24 20 16 13 10 6 4 4 6 8 9 9 8 8 7 5 4 2 2 3
39 39 39 40 41 43 45 45 45 46 46 46 46 45 43 41 39 37 34 31 29 26 22 18 14 10 7 4 2 5 8 10 11 10 10 9 9 7 6 5 5 6 8
36 36 38 40 42 44 44 44 43 43 43 43 43 42 41 38 36 33 30 27 24 20 16 12 8 4 1 3 7 10 12 13 13 12 11 10 9 8 7 7 8 10 12
33 36 38 40 42 42 42 42 41 41 41 41 40 39 37 35 32 28 25 22 18 15 10 6 4 3 6 9 11 14 15 15 14 12 11 10 9 9 9 10 12 14 15
33 36 38 40 40 40 40 39 38 38 37 37 36 35 33 30 26 23 20 17 14 10 5 4 5 8 11 13 15 17 17 16 14 13 11 10 10 11 12 14 16 18 19
34 36 38 38 38 38 37 36 35 34 33 33 32 30 27 25 21 19 17 13 10 7 5 7 9 12 15 16 18 18 17 15 14 12 11 11 12 13 15 17 19 20 21
34 35 36 37 37 36 35 34 32 31 31 30 29 27 23 21 18 16 14 12 10 7 8 9 12 15 16 18 18 17 16 14 13 12 12 13 14 16 18 20 21 21 22
33 34 35 35 35 34 33 32 30 29 29 27 26 24 20 18 15 14 13 11 10 9 9 11 14 16 17 18 18 17 15 13 13 13 13 14 15 18 20 21 22 22 22
33 33 34 34 33 32 30 29 28 27 26 26 24 21 18 15 13 12 12 11 10 10 10 12 15 17 18 18 18 16 14 13 13 13 14 15 17 19 20 21 21 21 21
32 33 33 33 31 30 28 26 25 25 24 24 22 19 16 13 11 11 11 10 10 10 11 13 15 17 18 18 17 16 15 14 14 14 15 16 18 19 20 21 21 20 19
32 33 32 31 29 27 25 24 23 23 23 22 20 17 15 12 11 10 11 10 10 11 12 13 15 16 17 17 17 16 15 13 13 14 15 17 18 19 19 20 19 18 17
32 31 30 29 27 25 24 23 22 22 22 21 19 16 14 11 10 10 10 10 11 11 12 13 14 15 16 17 16 15 15 14 13 14 15 17 18 18 18 17 16 15 14
31 30 29 28 26 24 23 23 23 22 22 21 20 17 15 12 10 10 11 11 11 11 12 13 14 15 15 15 15 15 15 14 13 14 15 16 17 17 16 16 14 13 12
31 31 29 28 26 24 24 24 23 23 22 22 20 19 16 14 12 11 11 11 11 11 11 12 13 13 14 14 14 14 14 14 14 14 14 14 15 15 14 14 13 12 11
33 32 30 29 27 25 24 24 24 24 23 22 21 19 18 16 15 13 12 12 12 11 11 12 12 13 13 13 13 14 14 14 14 13 13 13 13 13 13 12 12 11 10
34 33 32 30 28 27 25 25 25 25 24 24 22 20 18 17 16 15 14 13 13 12 12 12 12 12 12 12 13 13 13 13 14 14 13 13 12 11 11 10 10 9 8
36 35 34 32 31 29 27 26 26 26 26 25 23 22 19 17 17 16 15 14 14 13 13 12 12 12 12 12 12 12 12 13 13 13 13 13 12 11 10 9 8 7 7
Wind_Direction
290 290 292 297 300 304 307 309 310 310 311 311 310 307 304 302 301 302 303 303 303 303 302 301 300 299 298 296 295 293 291 289 288 282 276 270 265 262 263 262 261 259 258
288 289 293 298 302 305 307 309 310 311 312 311 309 306 304 304 304 305 305 305 304 303 302 301 300 299 298 296 294 292 290 289 287 281 274 267 260 258 258 258 258 258 258
287 293 299 303 305 307 309 310 311 312 311 310 308 307 306 307 307 307 306 305 304 304 303 302 301 300 298 296 294 292 290 289 286 280 271 261 256 254 253 253 256 258 257
300 305 306 306 308 309 310 311 312 312 311 310 309 309 309 309 308 308 307 306 305 305 305 304 303 301 299 296 294 293 290 288 284 277 267 255 250 249 248 250 254 256 257
310 310 308 308 309 311 311 312 312 312 311 311 311 311 310 310 309 308 308 307 307 307 306 305 304 303 301 297 294 292 290 286 281 273 261 249 244 244 246 248 250 254 256
309 308 309 310 312 313 313 313 313 313 313 313 313 312 312 311 311 310 310 310 309 309 308 306 306 304 302 298 295 292 288 283 276 267 254 240 236 237 238 240 247 252 257
309 309 311 313 313 314 314 314 314 314 315 314 314 313 313 312 313 313 312 311 311 311 309 308 307 305 302 299 295 292 285 277 267 253 236 228 224 224 223 230 241 251 262
309 311 313 314 315 315 314 315 315 316 315 315 314 314 314 315 315 314 314 313 313 312 311 310 308 306 303 299 294 288 279 265 248 224 209 203 199 198 203 216 230 251 275
310 312 314 315 315 314 315 316 316 316 316 315 315 316 317 317 317 316 315 314 314 313 313 311 308 306 303 298 290 280 262 231 196 176 171 173 176 181 187 191 201 251 314
312 314 315 314 314 315 316 317 317 316 316 316 317 318 319 319 318 318 317 315 315 314 314 312 310 306 302 297 279 245 198 169 159 158 158 161 161 160 157 153 144 101 73
314 314 313 314 315 316 317 317 317 317 317 318 319 321 322 321 320 319 318 317 317 317 317 316 315 311 304 291 205 164 152 148 148 151 151 150 148 145 136 126 117 107 100
313 312 313 315 317 318 318 318 318 319 320 322 323 325 325 324 323 322 321 321 321 321 322 323 325 326 333 141 143 141 139 138 140 142 141 138 135 131 124 118 115 115 110
312 313 316 317 318 319 319 320 321 322 323 325 326 327 327 327 327 326 326 327 327 329 332 343 11 81 116 128 132 134 133 135 137 138 134 128 125 122 119 118 119 119 116
314 317 318 320 321 321 322 324 325 326 327 328 329 329 331 332 333 335 337 338 342 348 7 49 89 110 122 127 131 133 132 133 134 131 126 121 119 120 121 123 123 121 117
318 320 322 323 324 325 326 327 328 330 331 332 334 335 337 340 343 347 351 356 3 19 56 91 108 119 126 129 133 133 133 131 127 121 117 117 117 119 124 127 125 123 119
323 324 325 326 328 329 330 331 332 334 335 337 340 342 345 348 351 356 2 12 24 51 85 105 117 126 129 133 133 132 131 127 120 114 113 116 118 122 126 127 127 124 120
327 329 330 331 332 333 334 335 336 338 341 343 346 349 352 355 0 6 15 27 45 69 92 112 124 129 132 135 134 133 129 123 117 112 112 116 120 125 129 129 127 123 119
333 334 334 335 335 336 338 339 341 344 347 350 352 355 358 3 9 18 30 41 56 75 95 116 127 132 134 135 135 133 129 121 116 112 113 117 121 126 130 131 129 124 120
338 339 339 339 340 341 343 345 348 351 353 356 358 2 6 12 20 30 40 50 66 85 101 118 129 135 138 138 137 135 131 124 117 114 114 119 123 127 130 132 130 127 124
344 344 345 345 347 349 351 353 356 358 0 2 5 8 13 22 33 43 49 60 74 91 105 117 130 139 142 143 142 140 136 129 122 118 117 120 123 125 129 131 131 130 128
351 351 353 354 356 358 0 2 4 6 8 10 13 17 23 32 44 53 59 69 80 94 108 118 127 137 144 147 147 144 141 135 127 122 121 122 125 126 128 131 133 133 133
0 2 3 5 6 8 10 11 12 14 16 19 23 28 33 41 53 63 67 77 87 96 110 119 126 134 142 147 149 148 147 142 135 129 126 124 124 126 128 129 130 131 133
10 11 12 14 15 17 18 19 20 21 24 27 31 35 41 49 61 69 74 80 90 98 108 119 125 133 141 147 151 153 154 151 146 139 134 130 127 126 126 126 126 126 127
19 20 20 21 22 24 25 25 27 28 30 32 35 40 47 56 65 72 79 82 90 99 104 113 122 129 134 142 147 153 157 158 156 151 144 139 134 130 128 126 124 122 122
26 26 27 28 28 29 30 30 31 33 34 36 39 44 52 60 66 72 78 83 90 98 103 108 115 124 130 136 142 148 155 160 162 161 156 151 147 142 137 132 127 122 120
31 31 32 32 32 33 33 34 34 36 37 39 42 47 54 63 68 72 79 84 91 98 101 105 110 117 125 131 136 143 151 158 163 166 167 165 162 158 154 149 144 137 132
Height
5748 5744 5739 5735 5729 5723 5716 5708 5700 5692 5684 5676 5669 5662 5656 5650 5644 5638 5632 5625 5618 5611 5603 5595 5588 5580 5573 5565 5559 5554 5549 5545 5544 5544 5541 5539 5537 5538 5539 5541 5542 5542 5543
5736 5732 5727 5723 5717 5710 5703 5695 5687 5679 5671 5664 5657 5650 5644 5638 5632 5625 5618 5610 5603 5595 5587 5579 5571 5563 5556 5549 5544 5539 5535 5531 5529 5530 5529 5527 5526 5527 5530 5531 5532 5533 5534
5725 5721 5716 5711 5705 5698 5690 5682 5674 5666 5659 5652 5645 5638 5632 5625 5618 5611 5603 5595 5587 5578 5570 5563 5555 5548 5541 5535 5531 5527 5523 5519 5517 5516 5517 5516 5517 5519 5521 5523 5524 5525 5525
5714 5710 5705 5699 5692 5685 5677 5670 5662 5654 5647 5640 5633 5627 5620 5612 5605 5597 5589 5580 5571 5563 5554 5547 5540 5534 5528 5524 5519 5515 5512 5509 5507 5506 5507 5508 5509 5511 5514 5515 5517 5518 5518
5704 5699 5693 5686 5679 5672 5665 5658 5650 5643 5636 5629 5622 5614 5607 5599 5591 5582 5574 5565 5556 5549 5540 5533 5527 5522 5517 5512 5509 5505 5502 5500 5499 5499 5500 5501 5503 5505 5508 5509 5511 5512 5513
5693 5687 5681 5674 5667 5660 5654 5647 5639 5632 5625 5618 5610 5602 5593 5585 5576 5567 5559 5550 5542 5535 5529 5522 5516 5511 5507 5503 5499 5497 5495 5493 5493 5493 5494 5496 5499 5501 5503 5505 5506 5507 5508
5682 5676 5669 5663 5656 5649 5643 5636 5629 5622 5614 5606 5598 5590 5581 5572 5563 5554 5545 5537 5530 5524 5518 5512 5506 5502 5498 5495 5492 5490 5489 5488 5489 5489 5491 5493 5496 5498 5500 5502 5503 5504 5505
5672 5665 5659 5652 5646 5639 5633 5626 5619 5611 5603 5595 5586 5578 5569 5560 5551 5543 5534 5526 5520 5514 5509 5504 5499 5494 5491 5488 5486 5485 5485 5485 5486 5487 5489 5492 5494 5496 5498 5500 5501 5502 5502
5662 5655 5649 5643 5636 5630 5623 5616 5608 5600 5592 5584 5575 5567 5558 5549 5541 5532 5525 5517 5511 5506 5501 5496 5492 5488 5485 5483 5482 5482 5483 5484 5485 5487 5489 5491 5493 5495 5497 5499 5501 5501 5501
5653 5646 5640 5634 5628 5622 5614 5607 5599 5590 5582 5573 5565 5557 5548 5540 5531 5523 5516 5510 5504 5499 5494 5490 5486 5484 5482 5480 5480 5481 5482 5484 5485 5488 5490 5492 5494 5496 5498 5499 5501 5501 5501
5645 5639 5633 5627 5621 5613 5605 5597 5589 5581 5572 5564 5556 5547 5539 5531 5523 5515 5509 5503 5497 5492 5488 5485 5483 5481 5480 5479 5480 5481 5483 5485 5487 5489 5491 5494 5496 5497 5499 5500 5501 5502 5503
5638 5633 5627 5620 5613 5605 5597 5588 5580 5572 5563 5555 5547 5538 5530 5523 5515 5508 5502 5496 5492 5488 5485 5482 5480 5479 5479 5479 5481 5483 5485 5487 5489 5492 5494 5496 5498 5499 5501 5502 5503 5504 5505
5633 5627 5620 5613 5605 5597 5588 5580 5572 5563 5555 5547 5539 5532 5524 5516 5509 5503 5497 5492 5488 5485 5482 5481 5480 5480 5480 5482 5483 5485 5488 5490 5493 5495 5497 5499 5500 5502 5503 5504 5505 5507 5508
5627 5620 5613 5605 5597 5589 5580 5572 5564 5556 5549 5541 5533 5526 5518 5511 5504 5499 5494 5489 5486 5483 5482 5482 5481 5482 5483 5485 5487 5489 5492 5494 5496 5498 5500 5502 5503 5505 5506 5507 5509 5511 5513
5621 5614 5606 5598 5590 5582 5574 5566 5558 5551 5543 5536 5529 5521 5514 5508 5502 5497 5492 5489 5486 5484 5483 5483 5484 5485 5487 5489 5491 5494 5496 5498 5500 5502 5504 5505 5506 5508 5509 5511 5514 5516 5518
5616 5608 5600 5591 5583 5575 5567 5560 5552 5546 5538 5531 5524 5517 5511 5506 5501 5496 5493 5489 5487 5486 5486 5486 5487 5488 5491 5493 5496 5498 5501 5503 5505 5506 5507 5508 5510 5512 5514 5516 5519 5521 5523
5610 5602 5594 5585 5577 5569 5562 5555 5548 5541 5534 5527 5521 5515 5509 5505 5501 5497 5494 5492 5490 5489 5489 5489 5490 5492 5495 5498 5500 5503 5505 5507 5509 5510 5511 5512 5514 5516 5518 5521 5524 5526 5529
5605 5597 5588 5580 5572 5565 5557 5550 5544 5537 5531 5525 5519 5513 5509 5505 5501 5498 5496 5494 5493 5492 5492 5493 5494 5496 5499 5502 5505 5507 5509 5511 5513 5514 5515 5517 5519 5521 5524 5527 5530 5532 5535
5600 5592 5584 5576 5568 5560 5554 5547 5541 5535 5529 5523 5518 5513 5509 5505 5503 5500 5499 5497 5496 5495 5495 5496 5498 5500 5503 5506 5509 5511 5514 5516 5517 5519 5520 5522 5524 5526 5529 5532 5535 5538 5540
5597 5588 5580 5572 5564 5557 5551 5545 5539 5534 5528 5523 5518 5513 5509 5507 5504 5503 5501 5500 5499 5499 5499 5500 5502 5504 5507 5510 5513 5515 5518 5520 5522 5524 5525 5527 5529 5532 5534 5537 5540 5543 5545
5594 5585 5577 5569 5562 5555 5550 5544 5539 5534 5528 5523 5518 5514 5510 5508 5506 5505 5504 5503 5503 5503 5503 5504 5506 5508 5511 5514 5516 5519 5522 5524 5526 5528 5530 5532 5534 5537 5539 5542 5545 5547 5550
5592 5583 5575 5568 5561 5555 5550 5545 5539 5534 5529 5524 5519 5515 5512 5510 5508 5507 5507 5506 5506 5506 5507 5508 5510 5512 5514 5517 5520 5523 5526 5528 5530 5533 5535 5537 5539 5542 5544 5547 5549 5551 5553
5591 5583 5575 5569 5562 5557 5551 5546 5541 5536 5531 5526 5522 5518 5515 5513 5511 5510 5510 5510 5510 5510 5511 5512 5514 5516 5518 5521 5523 5526 5529 5532 5534 5536 5539 5541 5544 5546 5548 5551 5553 5555 5557
5592 5584 5577 5571 5565 5559 5554 5549 5544 5539 5534 5530 5525 5522 5519 5516 5515 5514 5514 5514 5514 5515 5515 5517 5518 5520 5522 5524 5526 5529 5532 5534 5537 5540 5543 5545 5548 5550 5552 5554 5556 5558 5560
5595 5587 5580 5574 5568 5563 5557 5553 5548 5543 5538 5534 5530 5526 5523 5521 5519 5518 5518 5518 5518 5519 5520 5521 5522 5524 5525 5527 5530 5532 5534 5537 5540 5543 5545 5548 5551 5553 5555 5557 5559 5561 5563
5599 5592 5585 5579 5573 5567 5562 5557 5552 5548 5543 5539 5534 5531 5528 5526 5524 5523 5522 5522 5523 5524 5524 5526 5527 5528 5529 5531 5533 5535 5537 5540 5542 5545 5548 5551 5553 5556 5558 5560 5562 5564 5565